Flag for Germany Weather past 2 weeks in Peine, Lower Saxony, Germany

Now
54 °F

Overcast.


Feels Like: 52 °F
Forecast: 46 / 59 °F
Wind: 7 mph from Southwest

Location: Celle Airport

Current Time: Oct 26, 2014 at 4:07:10 AM

Latest Report: Oct 26, 2014 at 3:20 AM


Visibility: 5 mi

Pressure: 30.21 "Hg

Humidity: 82%

Dew point: 48 °F

Location of PeineLocation

Historic Weather in Peine — Graph

°F

Peine temperature yesterday

Maximum temperature yesterday: 55 °F (at 2:20 PM)
Minimum temperature yesterday: 48 °F (at 2:20 AM)
Average temperature yesterday: 52 °F

Past Weeks' High & Low Weather Summary

 TemperatureHumidityPressure
High73 °F (Oct 19, 3:20 PM)100% (Oct 11, 7:20 AM)30.21 "Hg (Oct 11, 7:20 AM)
Low46 °F (Oct 17, 5:20 AM)52% (Oct 14, 2:20 PM)29.42 "Hg (Oct 21, 6:20 PM)
Average55 °F88%29.89 "Hg
* Reported Oct 11 3:20 AM — Oct 26 2:20 AM, Peine, Weather by CustomWeather, © 2014

Note: Actual official high and low records may vary slightly from our data, if they occured in-between our weather recording intervals... More about our weather records

Advertising

Peine weather history for previous 24 hours

 ConditionsComfort  
Time TempWeatherWind HumidityBarometerVisibility
2:20 AM
Oct 26
54 °FFog.7 mph94%30.18 "Hg3 mi
2:20 AM54 °FFog.2 mph94%30.18 "Hg3 mi
1:20 AM54 °FFog.2 mph94%30.18 "Hg3 mi
12:20 AM54 °FFog.1 mph94%30.18 "Hg3 mi
11:20 PM
Oct 25
52 °FFog.3 mph100%30.15 "Hg3 mi
10:20 PM52 °FPartly cloudy.2 mph94%30.15 "Hg5 mi
9:20 PM52 °FPartly cloudy.5 mph100%30.15 "Hg5 mi
8:20 PM54 °FPassing clouds.2 mph94%30.12 "Hg6 mi
7:20 PM54 °FPassing clouds.3 mph94%30.12 "Hg6 mi
6:20 PM55 °FBroken clouds.5 mph88%30.12 "Hg6 mi
5:20 PM55 °FBroken clouds.6 mph88%30.09 "Hg6 mi
4:20 PM55 °FOvercast.7 mph88%30.09 "Hg6 mi
3:20 PM55 °FOvercast.7 mph88%30.09 "Hg5 mi
2:20 PM55 °FOvercast.6 mph88%30.07 "Hg4 mi
1:20 PM54 °FOvercast.7 mph88%30.07 "Hg6 mi
12:20 PM54 °FOvercast.3 mph88%30.07 "HgN/A
11:20 AM52 °FOvercast.5 mph88%30.07 "Hg5 mi
10:20 AM52 °FPartly sunny.3 mph88%30.07 "Hg5 mi
9:20 AM50 °FPartly sunny.5 mph94%30.07 "HgN/A
8:20 AM48 °FPassing clouds.3 mph94%30.04 "Hg6 mi
7:20 AM48 °FPartly cloudy.3 mph94%30.04 "HgN/A
6:20 AM50 °FLight rain. Overcast.3 mph82%30.04 "HgN/A
5:20 AM48 °FSprinkles. Partly cloudy.3 mph87%30.04 "HgN/A
4:20 AM48 °FPassing clouds.3 mph87%30.04 "HgN/A
Weather by CustomWeather, © 2014

See weather overviewHow to use our weather pages